Regional Weather Roundup
Issued by NWS

Home | Current Version | Previous Version | Text Only | Print | Product List | Glossary On
Versions: 1 2 3 4 5 6 7 8 9 10 11 12 13 14 15 16 17 18 19 20 21 22 23 24 25 26 27 28 29 30 31 32 33 34 35 36 37 38 39 40 41 42 43 44 45 46 47 48 49 50
000
ASUS44 KJAN 251110
RWRMS

MISSISSIPPI HOURLY WEATHER ROUNDUP
NATIONAL WEATHER SERVICE JACKSON MS
600 AM CDT MON MAY 25 2015

NOTE: "FAIR: INDICATES FEW OR NO CLOUDS BELOW 12,000 FEET WITH NO
SIGNIFICANT WEATHER AND/OR OBSTRUCTIONS TO VISIBILITY.

MSZ001>002-007>008-010>013-018>021-025>028-034>036-251200-
NORTHWEST MISSISSIPPI

CITY           SKY/WX    TMP DP  RH WIND       PRES   REMARKS
CLARKSDALE     CLOUDY    68  68 100 CALM      30.05R
CLEVELAND      PTSUNNY   68  68 100 CALM      30.03R
GREENWOOD        N/A    N/A N/A N/A MISG      30.04S
GREENVILLE     MOCLDY    70  68  93 S8        30.02S
OLIVE BRANCH   CLOUDY    66 N/A N/A S7        30.06R
OXFORD         FAIR      64  64 100 SE5       30.08R
TUNICA         CLOUDY    68  66  94 S5        30.05R
$$

MSZ003>006-009-014>017-022>024-029>033-037>039-251200-
NORTHEAST MISSISSIPPI

CITY           SKY/WX    TMP DP  RH WIND       PRES   REMARKS
COLUMBUS AFB   LGT RAIN  70  70 100 S6        30.08R
CORINTH        DRIZZLE   70  66  88 SE9       30.10R
GOLDN TRIANGLE CLOUDY    72  70  94 S12       30.08R
STARKVILLE     LGT RAIN  68  66  94 CALM      30.07F
TUPELO         CLOUDY    69  66  90 SE7       30.09R
$$

MSZ040-058-251200-
CENTRAL MISSISSIPPI

CITY           SKY/WX    TMP DP  RH WIND       PRES   REMARKS
JACKSON INTL   CLOUDY    70  68  93 SW5       30.05R
JACKSON HAWKNS CLOUDY    69  67  93 S3        30.05R
MERIDIAN KEY   CLOUDY    71  69  93 SE6       30.08S
MERIDIAN NAS   LGT RAIN  72  69  90 SE6       30.09S
RAYMOND        CLOUDY    70  64  83 CALM      30.04R
VICKSBURG      MOCLDY    68  66  93 SE5       30.03R
$$

MSZ059>079-251200-
SOUTH MISSISSIPPI

CITY           SKY/WX    TMP DP  RH WIND       PRES   REMARKS
BROOKHAVEN     FAIR      68  68 100 CALM      30.07R FOG
HATTIESBURG    CLOUDY    74  72  93 SE7       30.07R
MCCOMB         CLOUDY    70  70 100 S3        30.05R
NATCHEZ        MOCLDY    70  66  88 SE3       30.04R
PINE BELT      CLOUDY    73  70  88 SE8       30.07S
$$

MSZ080>082-251200-
COASTAL MISSISSIPPI

CITY           SKY/WX    TMP DP  RH WIND       PRES   REMARKS
BILOXI         CLOUDY    80  76  87 S12G17    30.06R
PASCAGOULA     CLOUDY    77  74  90 SE7       30.07R
GULFPORT       CLOUDY    72  69  90 NE3       30.07R
$$


USA.gov is the U.S. government's official web portal to all federal, state and local government web resources and services.